CW7779 Weather Reports


time (UTC)temp
C
wind
direction
speed
KPH
gust
KPH
rain 1hr
cm
rain 24hr
cm
rain mn
cm
humidity
%
barometer
mb
20260906124523 25 84 3.2 8.0 0.00 4.93 0.00 85 1012.0
20260906123021 24 18 1.6 8.0 0.00 4.93 0.00 86 1012.0
20260906121520 23 28 0.0 4.8 0.00 4.93 0.00 88 1011.8
20260906120018 23 341 3.2 8.0 0.00 4.93 0.00 90 1011.8
20260906114531 23 353 1.6 6.4 0.00 4.93 0.00 90 1011.6
20260906113018 23 16 1.6 4.8 0.00 4.93 0.00 90 1011.5
20260906111517 23 17 0.0 3.2 0.00 4.93 0.00 90 1011.4
20260906110016 22 16 1.6 4.8 0.00 4.93 0.00 89 1011.4
20260906104519 23 17 0.0 6.4 0.00 4.93 0.00 90 1011.1
20260906103015 23 24 0.0 4.8 0.00 4.93 0.00 90 1010.8
20260906101514 23 24 1.6 3.2 0.00 4.93 0.00 89 1010.6
20260906100013 23 24 1.6 4.8 0.00 4.93 0.00 90 1010.5
20260906094533 23 26 0.0 4.8 0.00 4.93 0.00 90 1010.4
20260906093018 23 21 0.0 3.2 0.00 4.93 0.00 90 1010.3
20260906091512 23 26 1.6 4.8 0.00 4.93 0.00 90 1010.4
20260906090018 23 22 0.0 4.8 0.00 4.93 0.00 90 1010.2
20260906084510 23 22 0.0 4.8 0.00 4.93 0.00 90 1010.1
20260906083010 23 13 0.0 3.2 0.00 4.93 0.00 90 1010.2
20260906081513 23 12 0.0 3.2 0.00 4.93 0.00 90 1010.3
20260906080010 23 13 0.0 1.6 0.00 4.93 0.00 90 1010.0
20260906074508 23 353 0.0 3.2 0.00 4.93 0.00 90 1010.3
20260906073012 23 353 1.6 4.8 0.00 4.93 0.00 90 1010.2
20260906071506 23 353 0.0 4.8 0.00 4.93 0.00 90 1010.3
20260906070005 23 353 0.0 6.4 0.00 4.93 0.00 90 1010.4
20260906064504 23 353 1.6 6.4 0.00 4.93 0.00 90 1010.4
20260906063004 23 44 0.0 1.6 0.00 4.93 0.00 90 1010.5
20260906061504 23 46 0.0 1.6 0.00 4.93 0.00 90 1010.9
20260906060001 23 47 0.0 1.6 0.00 4.93 0.00 89 1010.8
20260906054504 23 51 0.0 3.2 0.00 4.93 0.00 89 1010.9
20260906053100 23 65 0.0 4.8 0.00 4.93 0.00 89 1010.9
20260906051606 24 65 1.6 8.0 0.00 4.93 0.00 89 1011.4
20260906050106 24 43 1.6 6.4 0.00 4.93 0.00 89 1011.4
20260906044602 24 7 0.0 4.8 0.00 4.93 0.00 88 1011.3
20260906043055 24 336 1.6 8.0 0.00 4.93 0.00 88 1010.9
20260906041553 25 43 0.0 6.4 0.00 4.93 0.00 89 1010.9
20260906040100 24 344 0.0 6.4 0.00 4.93 4.93 88 1010.9
20260906034550 25 3 0.0 8.0 0.00 4.93 4.93 88 1010.9
20260906033050 24 239 1.6 11.3 0.00 4.93 4.93 87 1010.4
20260906031549 24 260 3.2 11.3 0.00 4.93 4.93 87 1010.5
20260906030048 24 223 4.8 16.1 0.00 4.93 4.93 87 1010.6
20260906024551 25 233 4.8 17.7 0.00 4.93 4.93 85 1010.9
20260906023047 25 214 6.4 19.3 0.00 4.93 4.93 86 1011.1
20260906021547 24 241 4.8 14.5 0.00 4.93 4.93 85 1011.4
20260906020046 24 214 4.8 17.7 0.00 4.93 4.93 87 1011.5
20260906014617 24 194 4.8 25.7 0.00 4.93 4.93 87 1011.5
20260906013049 23 229 9.7 17.7 0.00 4.93 4.93 86 1011.1
20260906011545 23 196 4.8 19.3 0.03 4.93 4.93 88 1010.9
20260906010050 23 245 4.8 12.9 0.05 4.93 4.93 90 1010.5
20260906004546 23 170 4.8 12.9 0.13 4.93 4.93 90 1010.5
20260906003044 23 168 1.6 4.8 0.18 4.93 4.93 89 1010.7
20260906001543 23 180 0.0 8.0 0.15 4.90 4.90 89 1009.9
20260906000043 23 136 9.7 20.9 1.19 4.88 4.88 89 1009.9
20260905234542 23 126 12.9 24.1 4.80 4.80 4.80 89 1010.4
20260905233045 22 115 11.3 25.7 4.75 4.75 4.75 88 1010.1
20260905231541 23 109 14.5 25.7 4.72 4.72 4.72 86 1010.9
20260905230034 25 23 19.3 37.0 3.38 3.38 3.38 88 1012.7
20260905224533 26 50 9.7 49.9 0.00 0.00 0.00 81 1011.0
20260905223032 27 130 8.0 38.6 0.00 0.00 0.00 78 1008.3
20260905221533 27 147 16.1 38.6 0.00 0.00 0.00 75 1009.2
20260905220030 29 200 4.8 20.9 0.00 0.00 0.00 81 1008.9
20260905214531 30 210 9.7 20.9 0.00 0.00 0.00 80 1008.7
20260905213029 30 236 8.0 24.1 0.00 0.00 0.00 78 1008.8
20260905211537 31 221 8.0 22.5 0.00 0.00 0.00 76 1008.7
20260905210033 31 222 11.3 25.7 0.00 0.00 0.00 74 1008.7
20260905204530 31 206 8.0 20.9 0.00 0.00 0.00 73 1008.4
20260905203028 31 153 8.0 19.3 0.00 0.00 0.00 74 1008.2
20260905201527 31 203 6.4 20.9 0.00 0.00 0.00 76 1008.3
20260905200028 31 209 6.4 16.1 0.00 0.00 0.00 77 1008.6
20260905194526 31 173 6.4 24.1 0.00 0.00 0.00 76 1008.9
20260905193025 32 192 9.7 22.5 0.00 0.00 0.00 74 1008.9
20260905191524 32 209 6.4 20.9 0.00 0.00 0.00 74 1009.3
20260905190024 32 242 12.9 22.5 0.00 0.00 0.00 71 1009.4
20260905184534 33 187 9.7 19.3 0.00 0.00 0.00 71 1010.0
20260905183021 32 151 9.7 20.9 0.00 0.00 0.00 73 1010.3
20260905181520 32 199 4.8 16.1 0.00 0.00 0.00 70 1010.4
20260905180019 33 200 8.0 17.7 0.00 0.00 0.00 69 1010.6
20260905174518 33 208 14.5 24.1 0.00 0.00 0.00 67 1010.6
20260905173018 35 192 4.8 11.3 0.00 0.00 0.00 64 1010.9
20260905171517 34 257 1.6 11.3 0.00 0.00 0.00 64 1011.0
20260905170014 34 204 0.0 16.1 0.00 0.00 0.00 62 1011.3
20260905164512 33 194 4.8 12.9 0.00 0.00 0.00 65 1011.5
20260905163011 33 346 3.2 17.7 0.00 0.00 0.00 61 1011.8
20260905161512 33 259 6.4 16.1 0.00 0.00 0.00 61 1012.0
20260905160007 33 235 4.8 17.7 0.00 0.00 0.00 64 1012.0
20260905154505 32 347 6.4 16.1 0.00 0.00 0.00 66 1012.0
20260905153005 32 252 6.4 24.1 0.00 0.00 0.00 66 1012.0
20260905151502 32 249 4.8 19.3 0.00 0.00 0.00 70 1012.0
20260905150059 31 246 8.0 19.3 0.00 0.00 0.00 70 1012.0
20260905144557 31 277 6.4 14.5 0.00 0.00 0.00 70 1012.1
20260905143054 31 165 3.2 16.1 0.00 0.00 0.00 72 1012.4
20260905141555 30 284 4.8 19.3 0.00 0.00 0.00 74 1012.3
20260905140049 30 275 6.4 19.3 0.00 0.00 0.00 75 1012.3
20260905134549 29 271 4.8 14.5 0.00 0.00 0.00 78 1012.5
20260905133042 28 265 3.2 9.7 0.00 0.00 0.00 79 1012.4
20260905131541 28 312 3.2 11.3 0.00 0.00 0.00 81 1012.5
20260905130037 27 267 4.8 12.9 0.00 0.00 0.00 82 1012.5